INTELSAT 33E DEB, 64401

Orbit data source: Space-Track

INTELSAT 33E DEB, 64401 is space debris in GEO originally from a launch on Wed, 24 Aug 2016 UTC launched from the French Guiana (FRGUI). Debris objects in space refer to the collection of defunct objects orbiting the Earth. Examples of debris include non-operational satellites, rocket bodies, and fragments generated from explosions, collisions, or faulty payload assembly.

Not visible in the next 10 days
Identifier
64401, 2016-053AF
Orbit
GEO
Last TLE update
2 days ago
Origin
Flag of UnknownINTELU (Unknown / ITSO)
Manufacturer
Boeing/ES
Mission
Spacecraft
Bus & Motor
Unknown
Mass
Unknown
Launch date (UTC)
2016-08-24 (9 years ago)
Launch vehicle
Unknown
Launch site
French Guiana (FRGUI)
Object type
Payload
Rocket body
Debris
Shape & HBR
Unknown
Radar Cross Section
RCS unknown

Expand to show TLE details & history

TLE from 2 days ago
0 INTELSAT 33E DEB
1 64401U 16053AF  25180.20438832 -.00000106  00000-0  00000-0 0  9994
2 64401   0.6088  59.6096 0715997 348.9207 317.4046  1.05775782  2576
Epoch: 2025-06-29T04:54Z
TLE epoch observation values (Epoch: 2025-06-29T04:54:19.15Z)
Latitude
-0.53389°
Longitude
8.88996°
Altitude
32,279.563 km
Speed
3.29 km/s
True Right ascension
00h 00m 00s
True Declination
0° 31' 60"
Sunlit
Object was in daylight at epoch
Visualization orbit readout
Latitude
0.53838°
Longitude
126.38894°
Altitude
33,077.544 km
Speed
3.226 km/s
Apparent Right ascension
07h 54m 15s
Apparent Declination
-4° 46' 34"
Sunlit
Object is in daylight
Visualization observer readout
Local Sidereal Time
20:28:41
Azimuth
14.704° NNE
Elevation
-54.012°
Doppler factor
1
Orbital elements
Apogee altitude
37,225.445 km
Perigee altitude
31,398.636 km
Semi-major axis
40,690.178 km
Eccentricity
0.0716
Inclination
0.6088°
RAAN
59.6096°
Arg. of periapsis
348.9207°
True anomaly
Unknown
Mean anomaly
317.4046°
Eccentric anomaly
Unknown
Mean motion
0.26443 °/min
Orbital period
1,361.42 mins
BSTAR
0
Loading historical data...
64401 neighbors
Loading maneuver chart data...
Loading SW <> Apogee altitude chart data...
Loading historical data...
Loading historical data...
Loading historical data...
Loading historical data...
Loading historical data...
Loading historical data...
Loading historical data...

INTELSAT 33E DEB Visibility

Observer location: undefined°, undefined°

INTELSAT 33E DEB is likely not visible in the next few days
Span
Click to sort rows by Start time (UTC) header in descending order
Start Az.
Max El. time (UTC)
Max El. Az.
Max El.
End time (UTC)
End Az.
|